Regional Weather Roundup
Issued by NWS Cleveland, OH

Home | Current Version | Previous Version | Graphics & Text | Print | Product List | Glossary On
Versions: 1 2 3 4 5 6 7 8 9 10 11 12 13 14 15 16 17 18 19 20 21 22 23 24 25 26 27 28 29 30 31 32 33 34 35 36 37 38 39 40 41 42 43 44 45 46 47 48 49 50
000
ASUS41 KCLE 310700
RWRCLE
OHIO REGIONAL WEATHER ROUNDUP
NATIONAL WEATHER SERVICE WILMINGTON, OH
200 AM EST SAT JAN 31 2015

NOTE: "FAIR" INDICATES FEW OR NO CLOUDS BELOW 12,000 FEET WITH NO
SIGNIFICANT WEATHER AND/OR OBSTRUCTIONS TO VISIBILITY.

OHZ001>008-015>018-024>027-034-035-043-044-310800-
   NORTHWEST OHIO

CITY           SKY/WX    TMP DP  RH WIND       PRES   REMARKS
DEFIANCE       MOCLDY    16  11  80 CALM      30.38F
FINDLAY        CLEAR     13   7  77 S6        30.37F WCI   4
TOLEDO EXPRESS CLOUDY    12   8  84 CALM      30.37F
TOLEDO EXEC    CLEAR     16   9  74 SW5       30.39F WCI   9
LIMA           CLEAR     16  10  77 S7        30.36F WCI   6
$$

OHZ009>014-019>023-028>033-038-089-310800-
   NORTHEAST OHIO

CITY           SKY/WX    TMP DP  RH WIND       PRES   REMARKS
CLE-HOPKINS    PTCLDY     6   1  80 S5        30.42F WCI  -3
CLE-LAKEFRONT  CLEAR     12   5  73 S6        30.40F WCI   3
CUY CO. ARPT   NOT AVBL
LORAIN-ELYRIA  PTCLDY     6   1  80 S7        30.39F WCI  -6
ASHTABULA      MOCLDY     2  -2  83 CALM      30.37F
AKRON-CANTON   PTCLDY     7   1  76 SW3       30.37S
WOOSTER        NOT AVBL
MANSFIELD      CLEAR      6   3  87 S6        30.35F WCI  -4
YOUNGSTOWN     PTCLDY     4   1  88 SW5       30.35F WCI  -5
$$

OHZ042-051>053-060>062-070>072-077>081-310800-
  SOUTHWEST OHIO

CITY           SKY/WX    TMP DP  RH WIND       PRES   REMARKS
CINC-COVINGTON CLEAR     21  14  74 CALM      30.41S
CINC-LUNKEN    CLEAR     17  15  92 CALM      30.46S
HAMILTON       CLEAR     14  12  92 CALM      30.43F
DAYTON         NOT AVBL
WRIGHT-PAT AFB CLEAR     14  11  87 CALM      30.40F
DAYTON GENERAL CLEAR     18  12  77 S5        30.39F WCI  11
WILMINGTON     CLEAR     16  11  80 CALM      30.39F
$$

OHZ036-037-039>041-045>050-054>059-063>069-073>076-082>088-310800-
  CENTRAL AND SOUTHEAST OHIO

CITY           SKY/WX    TMP DP  RH WIND       PRES   REMARKS
COLUMBUS       CLEAR     14   8  77 CALM      30.40F
OSU AIRPORT    CLEAR     14   8  77 CALM      30.40F
BOLTON FIELD   NOT AVBL
RICKENBACK AFB NOT AVBL
NEWARK         CLEAR      8   3  80 CALM      30.40F
MARION         CLEAR      7   3  84 S7        30.38F WCI  -5
LANCASTER      CLEAR      9   6  88 CALM      30.41F
ZANESVILLE     FAIR       5   2  87 CALM      30.40F
NEW PHILLY     FAIR       4   0  83 CALM      30.42F
$$



USA.gov is the U.S. government's official web portal to all federal, state and local government web resources and services.